User: anonymous   Login
Location: Unspecified
(0.0000°N, 0.0000°E)
Time: 09:04:50
(UTC+00:00)
Language:

Kopernikus 2 - Orbit

View from above orbital plane
View from above orbital plane
View from above satellite
View from above satellite

Ground track
Ground track

The orbit data is extracted from the following two-line orbital elements,

1 20706U 90063B   18018.34351501 -.00000268 +00000-0 +00000-0 0  9990
2 20706 013.1398 028.0338 0010325 256.4432 289.0710 00.99552225092336
Epoch (UTC): 18 January 2018 08:14:39
Eccentricity: 0.0010325
inclination: 13.1398°
perigee height: 35945 km
apogee height: 36033 km
right ascension of ascending node: 28.0338°
argument of perigee: 256.4432°
revolutions per day: 0.99552225
mean anomaly at epoch: 289.0710°
orbit number at epoch: 9233

The dashed part of the orbit path shows where the satellite is in the earth's shadow,  

DLR